Regional Weather Roundup
Issued by NWS

Home | Current Version | Previous Version | Text Only | Print | Product List | Glossary On
Versions: 1 2 3 4 5 6 7 8 9 10 11 12 13 14 15 16 17 18 19 20 21 22 23 24 25 26 27 28 29 30 31 32 33 34 35 36 37 38 39 40 41 42 43 44 45 46 47 48 49 50
000
ASUS42 KFFC 250510
RWRGA
WEATHER ROUNDUP FOR GEORGIA
NATIONAL WEATHER SERVICE PEACHTREE CITY GA
100 AM EDT MON SEP 25 2017

NOTE: "FAIR" INDICATES FEW OR NO CLOUDS BELOW 12,000 FEET WITH NO
SIGNIFICANT WEATHER AND/OR OBSTRUCTIONS TO VISIBILITY.

* = USE WITH CAUTION. THE STATIONS MARKED WITH AN ASTERISK MAY NOT
REPORT WEATHER SUCH AS PRECIPITATION, FOG, OR THUNDER AND ARE NOT
QUALITY CONTROLLED BY NWS.

THE REMARK "TC" DENOTES TEMPERATURE READING IN DEGREES CELSIUS.

GAZ001>058-250600-
NORTH GEORGIA

CITY           SKY/WX    TMP DP  RH WIND       PRES   REMARKS
ATLANTA        PTCLDY    74  64  71 NE7       30.01F
ATHENS         CLOUDY    68  65  90 CALM      30.00F
CHAMBLEE       CLEAR     66  63  90 N3        30.01F
PEACHTREE CITY CLEAR     66  65  96 CALM      30.01F
ROME           PTCLDY    68  67  96 N5        30.01F
WEST ATLANTA   CLEAR     67  67 100 CALM      30.00F
GAINESVILLE    CLEAR     70  64  81 N5        30.06S
CARTERSVILLE   CLEAR     64  64 100 CALM      30.02F


CITY           SKY/WX    TMP DP  RH WIND       PRES   REMARKS
DALTON*        CLEAR     64  64 100 CALM      30.04S
MARIETTA       PTCLDY    69  64  83 VRB2      30.01F
KENNESAW*      CLEAR     68  64  87 CALM      30.03F
CANTON*        CLEAR     66  66 100 CALM      30.04F
$$

GAZ059>098-102>109-250600-
CENTRAL GEORGIA

CITY           SKY/WX    TMP DP  RH WIND       PRES   REMARKS
AUGUSTA-BUSH   MOCLDY    71  68  90 CALM      29.95F
AUGUSTA-DANIEL MOCLDY    75  68  78 N7        29.97F
COLUMBUS       CLEAR     76  65  68 NE5       29.97F
MACON          CLEAR     67  67 100 W3        29.98S
ROBINS AFB     CLEAR     69  67  93 CALM      29.97S


CITY           SKY/WX    TMP DP  RH WIND       PRES   REMARKS
LAGRANGE*      CLEAR     67  66  98 CALM      30.00S
SYLVANIA*      PTCLDY    71  70  98 CALM      29.95F
MILLEDGEVILLE* CLEAR     72  70  94 CALM      29.98S
$$

GAZ099>101-110>166-250600-
SOUTH GEORGIA

CITY           SKY/WX    TMP DP  RH WIND       PRES   REMARKS
SAVANNAH       CLOUDY    72  70  93 N5        29.93F
VALDOSTA       CLEAR     69  67  93 CALM      29.94S
ALMA           CLEAR     69  67  93 CALM      29.94F
ST SIMONS      PTCLDY    75  72  90 NW3       29.91F
FT STEWART     CLOUDY    71  67  90 CALM      29.91F
ALBANY         CLEAR     73  67  81 E6        29.97S
MOODY AFB      CLEAR     71  68  89 CALM      29.94S
BRUNSWICK      PTCLDY    70  68  94 CALM      29.93S


CITY           SKY/WX    TMP DP  RH WIND       PRES   REMARKS
BAINBRIDGE*    PTCLDY    73  70  88 E3        29.94S
MOULTRIE*      CLEAR     73  66  78 NE3       29.95F
VIDALIA*       PTCLDY    72  68  88 CALM      29.96S
WAYCROSS*      CLEAR     70  67  90 CALM      29.94S
DOUGLAS*       CLEAR     70  68  94 CALM      29.96F
$$




USA.gov is the U.S. government's official web portal to all federal, state and local government web resources and services.